| time (UTC) | temp C | wind direction | speed KPH | gust KPH | rain 1hr cm | rain 24hr cm | rain mn cm | humidity % | barometer mb |
| 20260503203038 | 25 | 142 | 1.6 | 12.9 | 0.00 | 0.08 | 0.03 | 43 | 1020.1 |
| 20260503201509 | 26 | 281 | 3.2 | 12.9 | 0.00 | 0.08 | 0.03 | 36 | 1020.5 |
| 20260503200016 | 26 | 146 | 3.2 | 11.3 | 0.00 | 0.10 | 0.03 | 40 | 1020.7 |
| 20260503194521 | 26 | 292 | 0.0 | 8.0 | 0.00 | 0.10 | 0.03 | 40 | 1020.8 |
| 20260503193025 | 26 | 117 | 1.6 | 12.9 | 0.00 | 0.13 | 0.03 | 39 | 1021.2 |
| 20260503191523 | 26 | 254 | 3.2 | 16.1 | 0.00 | 0.13 | 0.03 | 43 | 1021.3 |
| 20260503190013 | 26 | 360 | 0.0 | 6.4 | 0.00 | 0.13 | 0.03 | 40 | 1021.5 |
| 20260503184526 | 26 | 136 | 1.6 | 11.3 | 0.00 | 0.15 | 0.03 | 42 | 1021.7 |
| 20260503183028 | 26 | 201 | 1.6 | 11.3 | 0.00 | 0.15 | 0.03 | 47 | 1021.9 |
| 20260503181528 | 25 | 75 | 3.2 | 12.9 | 0.00 | 0.15 | 0.03 | 43 | 1022.2 |
| 20260503180030 | 25 | 118 | 0.0 | 12.9 | 0.00 | 0.18 | 0.03 | 47 | 1022.5 |
| 20260503174517 | 25 | 121 | 3.2 | 11.3 | 0.00 | 0.20 | 0.03 | 49 | 1022.7 |
| 20260503173042 | 25 | 257 | 1.6 | 6.4 | 0.00 | 0.20 | 0.03 | 41 | 1022.7 |
| 20260503171534 | 24 | 272 | 1.6 | 6.4 | 0.00 | 0.23 | 0.03 | 46 | 1022.9 |
| 20260503081513 | 10 | 24 | 0.0 | 0.0 | 0.00 | 0.46 | 0.00 | 92 | 1021.7 |
| 20260503071524 | 10 | 24 | 0.0 | 0.0 | 0.00 | 0.48 | 0.00 | 92 | 1022.1 |
| 20260503054511 | 11 | 24 | 0.0 | 0.0 | 0.00 | 0.51 | 0.00 | 91 | 1022.3 |
| 20260503053017 | 11 | 24 | 0.0 | 0.0 | 0.00 | 0.51 | 0.00 | 91 | 1022.4 |
| 20260503051526 | 11 | 24 | 0.0 | 0.0 | 0.00 | 0.51 | 0.00 | 91 | 1022.4 |
| 20260503050024 | 11 | 24 | 0.0 | 0.0 | 0.00 | 0.53 | 0.00 | 90 | 1022.3 |
| 20260503044530 | 11 | 24 | 0.0 | 0.0 | 0.00 | 0.53 | 0.53 | 90 | 1022.3 |
| 20260503043015 | 11 | 24 | 0.0 | 0.0 | 0.00 | 0.53 | 0.53 | 89 | 1022.3 |
| 20260503041520 | 12 | 24 | 0.0 | 0.0 | 0.00 | 0.53 | 0.53 | 89 | 1022.0 |
| 20260503040030 | 12 | 24 | 0.0 | 0.0 | 0.00 | 0.53 | 0.53 | 88 | 1022.0 |
| 20260503034526 | 12 | 24 | 0.0 | 0.0 | 0.00 | 0.56 | 0.53 | 87 | 1022.1 |
| 20260503033048 | 12 | 24 | 0.0 | 0.0 | 0.00 | 0.56 | 0.53 | 86 | 1021.9 |
| 20260503031517 | 13 | 24 | 0.0 | 0.0 | 0.00 | 0.56 | 0.53 | 85 | 1021.8 |
| 20260503030025 | 13 | 24 | 0.0 | 0.0 | 0.00 | 0.56 | 0.53 | 83 | 1021.9 |
| 20260503024524 | 13 | 24 | 0.0 | 0.0 | 0.00 | 0.56 | 0.53 | 83 | 1021.6 |
| 20260503023041 | 14 | 24 | 0.0 | 0.0 | 0.00 | 0.56 | 0.53 | 82 | 1021.3 |
| 20260503021529 | 15 | 24 | 0.0 | 0.0 | 0.00 | 0.58 | 0.53 | 77 | 1021.0 |
| 20260503020018 | 15 | 24 | 0.0 | 0.0 | 0.00 | 0.58 | 0.53 | 71 | 1021.0 |
| 20260503014530 | 16 | 24 | 0.0 | 0.0 | 0.00 | 0.58 | 0.53 | 68 | 1021.0 |
| 20260503013027 | 16 | 24 | 0.0 | 0.0 | 0.00 | 0.58 | 0.53 | 65 | 1021.0 |
| 20260503011528 | 17 | 24 | 0.0 | 0.0 | 0.00 | 0.58 | 0.53 | 64 | 1020.7 |
| 20260503010032 | 17 | 24 | 0.0 | 0.0 | 0.00 | 0.61 | 0.53 | 67 | 1020.7 |
| 20260503004547 | 18 | 76 | 0.0 | 0.0 | 0.00 | 0.61 | 0.53 | 65 | 1020.6 |
| 20260503003026 | 18 | 141 | 0.0 | 4.8 | 0.00 | 0.61 | 0.53 | 62 | 1020.6 |
| 20260503001528 | 19 | 90 | 0.0 | 3.2 | 0.00 | 0.61 | 0.53 | 67 | 1020.5 |
| 20260503000003 | 20 | 149 | 0.0 | 1.6 | 0.00 | 0.61 | 0.53 | 62 | 1020.4 |
| 20260502234502 | 21 | 155 | 0.0 | 3.2 | 0.00 | 0.61 | 0.53 | 56 | 1020.4 |
| 20260502233003 | 21 | 75 | 0.0 | 3.2 | 0.00 | 0.64 | 0.53 | 53 | 1020.3 |
| 20260502231503 | 22 | 350 | 0.0 | 3.2 | 0.00 | 0.64 | 0.53 | 51 | 1020.3 |
| 20260502230003 | 22 | 109 | 0.0 | 4.8 | 0.03 | 0.64 | 0.53 | 53 | 1020.3 |
| 20260502224503 | 22 | 360 | 0.0 | 6.4 | 0.03 | 0.64 | 0.53 | 48 | 1020.2 |
| 20260502223006 | 23 | 352 | 0.0 | 3.2 | 0.03 | 0.64 | 0.53 | 48 | 1020.3 |
| 20260502221503 | 22 | 73 | 0.0 | 3.2 | 0.03 | 0.64 | 0.53 | 50 | 1020.5 |
| 20260502220003 | 22 | 107 | 1.6 | 8.0 | 0.00 | 0.61 | 0.51 | 58 | 1020.5 |
| 20260502214504 | 22 | 72 | 0.0 | 4.8 | 0.03 | 0.61 | 0.51 | 55 | 1020.6 |
| 20260502213004 | 23 | 120 | 1.6 | 8.0 | 0.03 | 0.64 | 0.51 | 45 | 1020.6 |
| 20260502211504 | 23 | 149 | 0.0 | 4.8 | 0.03 | 0.64 | 0.51 | 50 | 1020.9 |
| 20260502210004 | 22 | 28 | 1.6 | 11.3 | 0.05 | 0.64 | 0.51 | 51 | 1021.2 |
| 20260502204507 | 23 | 143 | 1.6 | 6.4 | 0.03 | 0.61 | 0.48 | 49 | 1021.4 |